Погода в Поронайске

Погода в Поронайске : погода сейчас, прогноз погоды и архив. Всё, что Вы хотите узнать о погоде в Поронайске!

Хотите узнать прогноз погоды в Поронайске? Тогда Вам сюда: Погода в Поронайске

Поиск расширенной информации на нашем сайте:

Другие новости

Новости СМИ2

Главная страница сайта

Новости сайта

03.07.2017

Напоминаем, что на нашем специализированном сайте Метеоцентр.Азия вы можете получить высокодетализированные автоматические прогнозы погоды по пунктам России, СНГ и мира в авиационном формате (включающие направление и скорость ветра, видимость, явления погоды, количество и форму облачности, нижнюю и верхнюю границу облачности).

Рекомендуем: Самая подробная информация услуги аренды персонала на сайте.

Погода в Поронайске - сегодня

Время (UTC), дата Ветер
(°,м/с) 
Видим.   Явления Облачность Т
(°С)
Тd
(°С)
f(%) Тe
(°С)
Pmin
(гПа)
dP
(гПа)
Po
(мм)
O2
(г/м3)
Тmin Tmax R s Состояние
почвы
12 16.02.18 290 (З) 1-2{04}  20000 м    ясно 
-23.2 -26.3 76 -24  1008.5  1.3  755  334           
15 16.02.18 350 (С) 2-2{03}  20000 м    ясно 
-24.1 -27.2 75 -27  1008.4  0.1  755  336           
18 16.02.18 350 (С) 2-2{03}  20000 м    ясно 
-29.8 -32.9 74 -33  1008  -0.5  755  343           
21 16.02.18 330 (СЗ) 2-3{04}  20000 м    ясно 
-26.9 -29.8 76 -30  1008.1  0.1  755  339  -31.7      114  очень
неравномерный
сухой снег
(сугробы, заносы) 
12 17.02.18 310 (СЗ) 2-3{08}  20000 м    ясно 
-19.4 -22.5 76 -22  1010.4  1.5  757  330           
15 17.02.18 310 (СЗ) 2-2{07}  20000 м    ясно 
-19.1 -23.7 67 -22  1010.8  0.4  757  330           
18 17.02.18 350 (С) 2-3{03}  20000 м    ясно 
-24 -26.4 81 -27  1012.1  1.2  758  337           
21 17.02.18 330 (СЗ) 3-4{05}  20000 м    ясно 
-23 -26.5 73 -28  1013.1  759  336  -27.2      114  очень
неравномерный
сухой снег
(сугробы, заносы) 
09 18.02.18 310 (СЗ) 2-3{07}  20000 м    3/0 верхняя 
[Ci ing]
-18.7 -22.4 73 -21  1014.9  1.2  760  331    -9.8  0.0     
12 18.02.18 340 (С) 2-3{03}  20000 м    ясно 
-18 -20.8 79 -21  1015.8  0.9  761  330           
15 18.02.18 310 (СЗ) 2-3{03}  20000 м    ясно 
-22.5 -24.9 81 -25  1015.4  -0.4  761  336           
21 18.02.18 010 (С) 2-3{03}  20000 м    ясно 
-29.2 -32.3 74 -33  1014.1  -1.1  760  345  -29.3      114  очень
неравномерный
сухой снег
(сугробы, заносы) 
09 19.02.18 360 (С) 1-1{04}  20000 м    3/0 средняя, верхняя 
[Ac lent|Ci fib]
-17.8 -21.8 71 -18  1009.9  0.3  757  328    -10.2       
12 19.02.18 350 (С) 3-4{04}  20000 м    ясно 
-18.7 -21.5 79 -23  1009.8  -0.1  756  329           
15 19.02.18 320 (СЗ) 2-3{04}  20000 м    ясно 
-16.6 -20.4 72 -19  1009.4  -0.4  756  326           
18 19.02.18 310 (СЗ) 2-3{05}  20000 м    ясно 
-17.6 -21.9 69 -20  1009.1  -0.4  756  327           
21 19.02.18 010 (С) 3-4{04}  20000 м    3/0 верхняя 
[Ci fib]
-18.1 -21.3 76 -22  1008.7  -0.4  756  328  -20.9      113  очень
неравномерный
сухой снег
(сугробы, заносы) 
00 20.02.18 340 (С) 3-4{05}  20000 м  слаб. ливневой снег  10/4 600 м кучево-дожд., средняя, верхняя 
[Cb cap|Ac As|Ci ing]
-15.1 -19.3 70 -19  1009.1  0.4  756  324           
09 20.02.18 330 (СЗ) 1-2{04}  20000 м    10/3 600 м кучево-дожд., средняя, верхняя 
[Cb cap|Ac trans|Ci ing]
-16.2 -20.8 68 -16  1009.2  1.4  756  325    -10.5  0.0     
21 20.02.18 360 (С) 2-2{03}  20000 м  {ливн. осадки}  10/3 600 м кучево-дожд., верхняя 
[Cb cap|Ci ing]
-23.6 -26 81 -27  1011.4  0.4  758  336  -24    0.3  113  очень
неравномерный
сухой снег
(сугробы, заносы) 
00 21.02.18 330 (СЗ) 2-3{03}  20000 м  {ливн. осадки}  8/0 средняя, верхняя 
[Ac trans|Ci ing]
-17.6 -20.5 78 -20  1011.9  0.6  758  328           
09 21.02.18 270 (З) 2-2{05}  10 км  слаб. ливневой снег  4/4 600 м кучево-дожд. 
[Cb cap]
-15.2 -18.4 76 -17  1012.5  1.4  758  325    -11.7  0.0     
18 21.02.18 010 (С) 3-3{03}  20000 м    ясно 
-23.4 -25.7 81 -28  1015.3  0.7  761  337           
21 21.02.18 340 (С) 2-3{03}  20000 м    3/1 600 м кучево-дожд., верхняя 
[Cb cap|Ci fib]
-25.9 -28.5 79 -29  1016.2  0.9  761  341  -25.9    0.0  114  очень
неравномерный
сухой снег
(сугробы, заносы) 
00 22.02.18 330 (СЗ) 1-2{03}  20000 м    3/0 верхняя 
[Ci fib]
-17 -20.2 76 -17  1016.8  0.6  762  329  -28         
Время (UTC), дата Ветер
(°,м/с) 
Видим.   Явления Облачность Т
(°С)
Тd
(°С)
f(%) Тe
(°С)
Pmin
(гПа)
dP
(гПа)
Po
(мм)
O2
(г/м3)
Тmin Tmax R s Состояние
почвы

Для получения пояснительной информации подведите курсор к названию столбца.

ПОГОДА в Поронайске - архив

Всё, что Вы хотите узнать о погоде в Поронайске - удобно и подробно!

Выберите нужную дату (начиная с 1 января 2015* года) и нажмите кнопку "Найти".
Будут отображены архивные сводки погоды по пункту Поронайск, начиная с указанной даты.


Отображать данные в формате CSV (для использования в таблицах Excel)


Внимание! Наш архив погоды предназначен исключительно для личного некоммерческого использования в познавательных целях. Если Вам необходимы официальные справки о состоянии погоды (для производственных, юридических, коммерческих и т.п. целей), обращайтесь в органы Росгидромета.

*Примечание: данная дата относится к архиву по метеостанциям СССР (Россия, СНГ, Балтия).
Архив по метеостанциям Зарубежной Европы и Азии (кроме Китая) хранится 10 дней, по другим регионам земного шара (Китай, Африка, Америка, Австралия, Океания) - 1 день.

Поронайск - район местоположения метеостанции


Название, широта, долгота, высота метеостанции:
Поронайск 49.2°ш. 143.1°д. 8 м над ур. моря [Российская Федерация]

Дополнительная информация

В oтличие oт бoльшинства пoгoдных сайтoв мы публикуем пoдрoбную метеoинфoрмацию в детальнoм прoфессиoнальнoм фoрмате.

Характеристики температуры и влажнoсти вoздуха измеряются на высoте 2 м в тени вдали oт зданий и деревьев.
Скoрoсть ветра измеряется на высoте 10 м (на урoвне рoста челoвека скoрoсть ветра ниже в 1.5-2 раза). Если метеoстанция нахoдится в гoрoде или в лесу, тo скoрoсть ветра занижена на 2-4 м/с пo сравнению с oткрытым местoм. Скoрoсть ветра над акватoриями крупных рек и oзёр, а также на вершинах хoлмoв на 2-5 м/с выше, чем в oбычных услoвиях.
Атмoсфернoе давление в разных тoчках местнoсти мoжет значительнo oтличаться oт давления на метеoстанции, в зависимoсти oт услoвий рельефа (при пoдъёме на 10 м давление пoнижается примернo на 1 мм рт.ст.).